Time,TemperatureF,DewpointF,PressureIn,WindDirection,WindDirectionDegrees,WindSpeedMPH,WindSpeedGustMPH,Humidity,HourlyPrecipIn,Conditions,Clouds,dailyrainin,SoftwareType,DateUTC
2013-02-05 00:00:00,49.8,49.0,30.05,SSE,163,0.0,2.0,97,0.00,,---,0.00,VWS V14.00,2013-02-05 08:00:00,
2013-02-05 00:02:00,50.3,49.5,30.06,East,96,0.0,7.0,97,0.00,,---,0.00,VWS V14.00,2013-02-05 08:02:00,
2013-02-05 00:15:00,50.2,49.0,30.06,ENE,66,0.0,3.0,97,0.00,,,0.00,weatherlink.com 1.10,2013-02-05 08:15:00,
2013-02-05 00:30:00,49.6,48.8,30.04,SE,135,1.0,3.0,97,0.00,,---,0.00,VWS V14.00,2013-02-05 08:30:00,
2013-02-05 00:32:00,49.8,49.0,30.05,North,5,0.0,3.0,97,0.00,,---,0.00,VWS V14.00,2013-02-05 08:32:00,
2013-02-05 00:49:00,49.7,49.0,30.05,ENE,66,0.0,2.0,97,0.00,,,0.00,weatherlink.com 1.10,2013-02-05 08:49:00,
2013-02-05 01:00:00,49.6,48.8,30.03,SE,132,0.0,3.0,97,0.00,,---,0.00,VWS V14.00,2013-02-05 09:00:00,
2013-02-05 01:02:00,49.8,49.0,30.05,SSE,163,0.0,2.0,97,0.00,,---,0.00,VWS V14.00,2013-02-05 09:02:00,
2013-02-05 01:06:00,49.8,49.0,30.05,SSE,163,0.0,1.0,97,0.00,,,0.00,weatherlink.com 1.10,2013-02-05 09:06:00,
2013-02-05 01:24:00,49.7,49.0,30.04,ENE,67,1.0,1.0,97,0.00,,,0.00,weatherlink.com 1.10,2013-02-05 09:24:00,
2013-02-05 01:30:00,49.6,48.8,30.03,East,101,0.0,1.0,97,0.00,,---,0.00,VWS V14.00,2013-02-05 09:30:00,
2013-02-05 01:32:00,49.6,48.8,30.04,SE,135,1.0,3.0,97,0.00,,---,0.00,VWS V14.00,2013-02-05 09:32:00,
2013-02-05 01:40:00,49.6,49.0,30.04,ENE,65,0.0,3.0,97,0.00,,,0.00,weatherlink.com 1.10,2013-02-05 09:40:00,
2013-02-05 01:58:00,49.6,49.0,30.04,SE,133,0.0,2.0,97,0.00,,,0.00,weatherlink.com 1.10,2013-02-05 09:58:00,
2013-02-05 02:00:00,49.8,49.3,30.02,ESE,107,1.0,2.0,98,0.00,,---,0.00,VWS V14.00,2013-02-05 10:00:00,
2013-02-05 02:02:00,49.6,48.8,30.03,SE,132,0.0,3.0,97,0.00,,---,0.00,VWS V14.00,2013-02-05 10:02:00,
2013-02-05 02:15:00,49.5,49.0,30.04,SE,132,0.0,0.0,97,0.00,,,0.00,weatherlink.com 1.10,2013-02-05 10:15:00,
2013-02-05 02:30:00,49.7,48.9,30.02,East,99,0.0,3.0,97,0.00,,---,0.00,VWS V14.00,2013-02-05 10:30:00,
2013-02-05 02:32:00,49.6,48.8,30.03,East,101,0.0,1.0,97,0.00,,---,0.00,VWS V14.00,2013-02-05 10:32:00,
2013-02-05 02:33:00,49.6,49.0,30.03,East,101,0.0,1.0,97,0.00,,,0.00,weatherlink.com 1.10,2013-02-05 10:33:00,
2013-02-05 02:49:00,49.7,49.0,30.03,East,101,0.0,1.0,98,0.00,,,0.00,weatherlink.com 1.10,2013-02-05 10:49:00,
2013-02-05 03:00:00,49.6,48.8,30.01,ESE,110,0.0,3.0,97,0.00,,---,0.00,VWS V14.00,2013-02-05 11:00:00,
2013-02-05 03:02:00,49.8,49.3,30.02,ESE,107,1.0,2.0,98,0.00,,---,0.00,VWS V14.00,2013-02-05 11:02:00,
2013-02-05 03:06:00,49.9,49.0,30.02,SE,132,2.0,3.0,98,0.00,,,0.00,weatherlink.com 1.10,2013-02-05 11:06:00,
2013-02-05 03:24:00,49.7,49.0,30.02,ENE,65,0.0,3.0,97,0.00,,,0.00,weatherlink.com 1.10,2013-02-05 11:24:00,
2013-02-05 03:30:00,49.1,48.6,30.00,East,98,1.0,3.0,98,0.00,,---,0.00,VWS V14.00,2013-02-05 11:30:00,
2013-02-05 03:32:00,49.7,48.9,30.02,East,99,0.0,3.0,97,0.00,,---,0.00,VWS V14.00,2013-02-05 11:32:00,
2013-02-05 03:41:00,49.3,49.0,30.02,ENE,70,1.0,3.0,97,0.00,,,0.00,weatherlink.com 1.10,2013-02-05 11:41:00,
2013-02-05 03:58:00,49.5,49.0,30.02,East,85,0.0,2.0,97,0.00,,,0.00,weatherlink.com 1.10,2013-02-05 11:58:00,
2013-02-05 04:00:00,49.0,48.2,30.00,East,80,0.0,3.0,97,0.00,,---,0.00,VWS V14.00,2013-02-05 12:00:00,
2013-02-05 04:02:00,49.6,48.8,30.01,ESE,110,0.0,3.0,97,0.00,,---,0.00,VWS V14.00,2013-02-05 12:02:00,
2013-02-05 04:16:00,49.4,49.0,30.01,ENE,71,1.0,3.0,97,0.00,,,0.00,weatherlink.com 1.10,2013-02-05 12:16:00,
2013-02-05 04:30:00,48.6,47.8,30.00,ENE,66,0.0,3.0,97,0.00,,---,0.00,VWS V14.00,2013-02-05 12:30:00,
2013-02-05 04:32:00,49.1,49.0,30.00,East,98,1.0,2.0,98,0.00,,,0.00,weatherlink.com 1.10,2013-02-05 12:32:00,
2013-02-05 04:49:00,49.1,48.0,30.00,ENE,77,2.0,5.0,97,0.00,,,0.00,weatherlink.com 1.10,2013-02-05 12:49:00,
2013-02-05 05:00:00,48.2,47.4,30.01,ESE,120,0.0,3.0,97,0.00,,---,0.00,VWS V14.00,2013-02-05 13:00:00,
2013-02-05 05:02:00,49.0,48.2,30.00,East,80,0.0,3.0,97,0.00,,---,0.00,VWS V14.00,2013-02-05 13:02:00,
2013-02-05 05:07:00,49.0,48.0,30.00,North,5,0.0,0.0,97,0.00,,,0.00,weatherlink.com 1.10,2013-02-05 13:07:00,
2013-02-05 05:24:00,49.0,48.0,30.00,ESE,103,1.0,3.0,97,0.00,,,0.00,weatherlink.com 1.10,2013-02-05 13:24:00,
2013-02-05 05:30:00,48.3,47.8,30.02,NE,53,1.0,3.0,98,0.00,,---,0.00,VWS V14.00,2013-02-05 13:30:00,
2013-02-05 05:32:00,48.6,47.8,30.00,ENE,66,0.0,3.0,97,0.00,,---,0.00,VWS V14.00,2013-02-05 13:32:00,
2013-02-05 05:41:00,48.6,48.0,30.00,SSE,149,1.0,3.0,98,0.00,,,0.00,weatherlink.com 1.10,2013-02-05 13:41:00,
2013-02-05 05:58:00,48.3,48.0,30.00,ESE,123,0.0,2.0,97,0.00,,,0.00,weatherlink.com 1.10,2013-02-05 13:58:00,
2013-02-05 06:00:00,48.2,47.7,30.04,ENE,73,0.0,5.0,98,0.00,,---,0.00,VWS V14.00,2013-02-05 14:00:00,
2013-02-05 06:02:00,48.2,47.4,30.01,ESE,120,0.0,3.0,97,0.00,,---,0.00,VWS V14.00,2013-02-05 14:02:00,
2013-02-05 06:16:00,48.3,48.0,30.02,ENE,69,2.0,3.0,98,0.00,,,0.00,weatherlink.com 1.10,2013-02-05 14:16:00,
2013-02-05 06:30:00,47.9,47.1,30.06,East,96,2.0,4.0,97,0.00,,---,0.00,VWS V14.00,2013-02-05 14:30:00,
2013-02-05 06:32:00,48.3,47.8,30.02,NE,53,1.0,3.0,98,0.00,,---,0.00,VWS V14.00,2013-02-05 14:32:00,
2013-02-05 06:33:00,48.4,48.0,30.02,NE,41,0.0,2.0,98,0.00,,,0.00,weatherlink.com 1.10,2013-02-05 14:33:00,
2013-02-05 06:50:00,48.4,48.0,30.03,SE,124,1.0,3.0,98,0.00,,,0.00,weatherlink.com 1.10,2013-02-05 14:50:00,
2013-02-05 07:00:00,47.3,46.5,30.06,NE,50,0.0,7.0,97,0.00,,---,0.00,VWS V14.00,2013-02-05 15:00:00,
2013-02-05 07:02:00,48.2,47.7,30.04,ENE,73,0.0,5.0,98,0.00,,---,0.00,VWS V14.00,2013-02-05 15:02:00,
2013-02-05 07:08:00,48.2,48.0,30.04,NE,53,1.0,4.0,98,0.00,,,0.00,weatherlink.com 1.10,2013-02-05 15:08:00,
2013-02-05 07:24:00,48.0,48.0,30.05,ENE,69,1.0,3.0,98,0.00,,,0.00,weatherlink.com 1.10,2013-02-05 15:24:00,
2013-02-05 07:30:00,47.5,47.0,30.07,East,100,0.0,8.0,98,0.00,,---,0.00,VWS V14.00,2013-02-05 15:30:00,
2013-02-05 07:32:00,47.9,47.1,30.06,East,96,2.0,4.0,97,0.00,,---,0.00,VWS V14.00,2013-02-05 15:32:00,
2013-02-05 07:42:00,48.0,48.0,30.06,ESE,105,3.0,4.0,98,0.00,,,0.00,weatherlink.com 1.10,2013-02-05 15:42:00,
2013-02-05 07:59:00,47.4,47.0,30.06,SE,139,1.0,6.0,97,0.00,,,0.00,weatherlink.com 1.10,2013-02-05 15:59:00,
2013-02-05 08:00:00,47.9,47.1,30.08,NNE,19,0.0,8.0,97,0.00,,---,0.00,VWS V14.00,2013-02-05 16:00:00,
2013-02-05 08:16:00,47.3,47.0,30.06,NE,37,2.0,8.0,97,0.00,,,0.00,weatherlink.com 1.10,2013-02-05 16:16:00,
2013-02-05 08:30:00,48.9,48.4,30.09,East,96,0.0,4.0,98,0.00,,---,0.00,VWS V14.00,2013-02-05 16:30:00,
2013-02-05 08:32:00,47.5,47.0,30.07,East,100,0.0,8.0,98,0.00,,---,0.00,VWS V14.00,2013-02-05 16:32:00,
2013-02-05 08:34:00,47.5,47.0,30.07,ESE,113,1.0,5.0,98,0.00,,,0.00,weatherlink.com 1.10,2013-02-05 16:34:00,
2013-02-05 08:51:00,47.8,47.0,30.08,North,5,1.0,3.0,97,0.00,,,0.00,weatherlink.com 1.10,2013-02-05 16:51:00,
2013-02-05 09:00:00,49.9,49.4,30.10,East,94,0.0,5.0,98,0.00,,---,0.00,VWS V14.00,2013-02-05 17:00:00,
2013-02-05 09:02:00,47.9,47.1,30.08,NNE,19,0.0,8.0,97,0.00,,---,0.00,VWS V14.00,2013-02-05 17:02:00,
2013-02-05 09:09:00,48.1,48.0,30.08,NE,36,0.0,3.0,98,0.00,,,0.00,weatherlink.com 1.10,2013-02-05 17:09:00,
2013-02-05 09:25:00,48.8,48.0,30.08,ENE,74,1.0,4.0,98,0.00,,,0.00,weatherlink.com 1.10,2013-02-05 17:25:00,
2013-02-05 09:30:00,51.0,50.2,30.10,ENE,65,0.0,3.0,97,0.00,,---,0.00,VWS V14.00,2013-02-05 17:30:00,
2013-02-05 09:32:00,48.9,48.4,30.09,East,96,0.0,4.0,98,0.00,,---,0.00,VWS V14.00,2013-02-05 17:32:00,
2013-02-05 09:42:00,49.2,49.0,30.09,ESE,105,3.0,5.0,98,0.00,,,0.00,weatherlink.com 1.10,2013-02-05 17:42:00,
2013-02-05 10:00:00,50.0,50.0,30.09,East,98,2.0,5.0,98,0.00,,,0.00,weatherlink.com 1.10,2013-02-05 18:00:00,
2013-02-05 10:02:00,49.9,49.4,30.10,East,94,0.0,5.0,98,0.00,,---,0.00,VWS V14.00,2013-02-05 18:02:00,
2013-02-05 10:17:00,50.4,50.0,30.09,ENE,70,2.0,3.0,98,0.00,,,0.00,weatherlink.com 1.10,2013-02-05 18:17:00,
2013-02-05 10:30:00,52.4,50.2,30.08,East,101,0.0,4.0,92,0.00,,---,0.00,VWS V14.00,2013-02-05 18:30:00,
2013-02-05 10:32:00,51.0,50.2,30.10,ENE,65,0.0,3.0,97,0.00,,---,0.00,VWS V14.00,2013-02-05 18:32:00,
2013-02-05 10:34:00,51.1,50.0,30.10,ENE,65,0.0,2.0,97,0.00,,,0.00,weatherlink.com 1.10,2013-02-05 18:34:00,
2013-02-05 10:52:00,51.6,51.0,30.10,SSE,157,2.0,4.0,97,0.00,,,0.00,weatherlink.com 1.10,2013-02-05 18:52:00,
2013-02-05 11:00:00,52.9,50.6,30.06,ESE,119,0.0,4.0,92,0.00,,---,0.00,VWS V14.00,2013-02-05 19:00:00,
2013-02-05 11:02:00,51.6,50.5,30.10,South,178,1.0,4.0,96,0.00,,---,0.00,VWS V14.00,2013-02-05 19:02:00,
2013-02-05 11:08:00,51.7,50.0,30.10,SSE,158,1.0,4.0,95,0.00,,,0.00,weatherlink.com 1.10,2013-02-05 19:08:00,
2013-02-05 11:26:00,52.2,51.0,30.09,SSE,153,2.0,3.0,94,0.00,,,0.00,weatherlink.com 1.10,2013-02-05 19:26:00,
2013-02-05 11:30:00,53.7,50.2,30.03,SE,134,0.0,3.0,88,0.00,,---,0.00,VWS V14.00,2013-02-05 19:30:00,
2013-02-05 11:32:00,52.4,50.2,30.08,East,101,0.0,4.0,92,0.00,,---,0.00,VWS V14.00,2013-02-05 19:32:00,
2013-02-05 11:43:00,52.6,50.0,30.08,SSE,148,0.0,4.0,92,0.00,,,0.00,weatherlink.com 1.10,2013-02-05 19:43:00,
2013-02-05 12:00:00,52.7,51.0,30.07,ESE,121,0.0,2.0,92,0.00,,,0.00,weatherlink.com 1.10,2013-02-05 20:00:00,
2013-02-05 12:17:00,53.5,50.0,30.05,South,189,0.0,3.0,88,0.00,,,0.00,weatherlink.com 1.10,2013-02-05 20:17:00,
2013-02-05 12:30:00,53.3,50.2,30.02,SW,222,1.0,6.0,89,0.00,,---,0.00,VWS V14.00,2013-02-05 20:30:00,
2013-02-05 12:32:00,53.7,50.2,30.03,SE,134,0.0,3.0,88,0.00,,---,0.00,VWS V14.00,2013-02-05 20:32:00,
2013-02-05 12:52:00,53.7,50.0,30.03,South,186,1.0,3.0,88,0.00,,,0.00,weatherlink.com 1.10,2013-02-05 20:52:00,
2013-02-05 13:00:00,53.2,49.7,30.02,WSW,256,1.0,4.0,88,0.00,,---,0.00,VWS V14.00,2013-02-05 21:00:00,
2013-02-05 13:02:00,53.9,50.1,30.02,WSW,243,0.0,3.0,87,0.00,,---,0.00,VWS V14.00,2013-02-05 21:02:00,
2013-02-05 13:09:00,53.8,50.0,30.02,South,171,2.0,4.0,87,0.00,,,0.00,weatherlink.com 1.10,2013-02-05 21:09:00,
2013-02-05 13:27:00,53.4,50.0,30.03,West,271,4.0,7.0,88,0.00,,,0.00,weatherlink.com 1.10,2013-02-05 21:27:00,
2013-02-05 13:30:00,53.8,50.0,30.00,West,268,0.0,4.0,87,0.00,,---,0.00,VWS V14.00,2013-02-05 21:30:00,
2013-02-05 13:32:00,53.3,50.2,30.02,SW,222,1.0,6.0,89,0.00,,---,0.00,VWS V14.00,2013-02-05 21:32:00,
2013-02-05 13:43:00,53.4,50.0,30.02,South,184,0.0,3.0,87,0.00,,,0.00,weatherlink.com 1.10,2013-02-05 21:43:00,
2013-02-05 14:00:00,54.3,49.9,29.99,South,184,3.0,5.0,85,0.00,,---,0.00,VWS V14.00,2013-02-05 22:00:00,
2013-02-05 14:01:00,53.3,50.0,30.02,West,260,2.0,4.0,88,0.00,,,0.00,weatherlink.com 1.10,2013-02-05 22:01:00,
2013-02-05 14:02:00,53.2,49.7,30.02,WSW,256,1.0,4.0,88,0.00,,---,0.00,VWS V14.00,2013-02-05 22:02:00,
2013-02-05 14:18:00,53.7,50.0,30.00,WNW,288,2.0,3.0,87,0.00,,,0.00,weatherlink.com 1.10,2013-02-05 22:18:00,
2013-02-05 14:30:00,54.1,50.0,29.99,SSW,196,4.0,6.0,86,0.00,,---,0.00,VWS V14.00,2013-02-05 22:30:00,
2013-02-05 14:32:00,53.8,50.0,30.00,West,268,0.0,4.0,87,0.00,,---,0.00,VWS V14.00,2013-02-05 22:32:00,
2013-02-05 14:36:00,54.0,50.0,30.00,WSW,254,1.0,1.0,87,0.00,,,0.00,weatherlink.com 1.10,2013-02-05 22:36:00,
2013-02-05 14:52:00,54.1,50.0,29.99,SE,144,0.0,5.0,85,0.00,,,0.00,weatherlink.com 1.10,2013-02-05 22:52:00,
2013-02-05 15:00:00,54.1,49.7,29.99,WSW,252,5.0,6.0,85,0.00,,---,0.00,VWS V14.00,2013-02-05 23:00:00,
2013-02-05 15:02:00,54.3,49.9,29.99,South,184,3.0,5.0,85,0.00,,---,0.00,VWS V14.00,2013-02-05 23:02:00,
2013-02-05 15:10:00,54.1,50.0,29.99,South,185,3.0,5.0,85,0.00,,,0.00,weatherlink.com 1.10,2013-02-05 23:10:00,
2013-02-05 15:27:00,53.8,50.0,29.99,South,189,0.0,5.0,86,0.00,,,0.00,weatherlink.com 1.10,2013-02-05 23:27:00,
2013-02-05 15:30:00,53.1,49.0,30.00,West,267,4.0,10.0,86,0.00,,---,0.00,VWS V14.00,2013-02-05 23:30:00,
2013-02-05 15:32:00,54.1,50.0,29.99,SSW,196,4.0,6.0,86,0.00,,---,0.00,VWS V14.00,2013-02-05 23:32:00,
2013-02-05 15:44:00,53.9,50.0,29.99,SW,223,2.0,6.0,86,0.00,,,0.00,weatherlink.com 1.10,2013-02-05 23:44:00,
2013-02-05 16:00:00,52.8,49.0,30.00,West,281,2.0,8.0,87,0.00,,---,0.00,VWS V14.00,2013-02-06 00:00:00,
2013-02-05 16:01:00,54.1,50.0,29.99,South,183,2.0,6.0,85,0.00,,,0.00,weatherlink.com 1.10,2013-02-06 00:01:00,
2013-02-05 16:02:00,54.1,49.7,29.99,WSW,252,5.0,6.0,85,0.00,,---,0.00,VWS V14.00,2013-02-06 00:02:00,
2013-02-05 16:19:00,53.2,49.0,30.00,West,260,6.0,10.0,86,0.00,,,0.00,weatherlink.com 1.10,2013-02-06 00:19:00,
2013-02-05 16:30:00,53.0,48.9,30.00,West,262,0.0,3.0,86,0.00,,---,0.00,VWS V14.00,2013-02-06 00:30:00,
2013-02-05 16:32:00,53.1,49.0,30.00,West,267,4.0,10.0,86,0.00,,---,0.00,VWS V14.00,2013-02-06 00:32:00,
2013-02-05 16:35:00,53.0,49.0,30.00,West,263,5.0,8.0,86,0.00,,,0.00,weatherlink.com 1.10,2013-02-06 00:35:00,
2013-02-05 16:53:00,52.9,49.0,30.01,WNW,290,3.0,7.0,86,0.00,,,0.00,weatherlink.com 1.10,2013-02-06 00:53:00,
2013-02-05 17:00:00,53.1,48.7,30.00,SW,220,2.0,4.0,85,0.00,,---,0.00,VWS V14.00,2013-02-06 01:00:00,
2013-02-05 17:02:00,52.8,49.0,30.00,West,281,2.0,8.0,87,0.00,,---,0.00,VWS V14.00,2013-02-06 01:02:00,
2013-02-05 17:11:00,52.8,49.0,30.00,West,274,0.0,2.0,86,0.00,,,0.00,weatherlink.com 1.10,2013-02-06 01:11:00,
2013-02-05 17:27:00,53.0,49.0,30.00,WNW,284,2.0,3.0,86,0.00,,,0.00,weatherlink.com 1.10,2013-02-06 01:27:00,
2013-02-05 17:30:00,53.1,48.4,30.01,West,266,3.0,4.0,84,0.00,,---,0.00,VWS V14.00,2013-02-06 01:30:00,
2013-02-05 17:32:00,53.0,48.9,30.00,West,262,0.0,3.0,86,0.00,,---,0.00,VWS V14.00,2013-02-06 01:32:00,
2013-02-05 17:45:00,53.1,49.0,30.00,West,262,2.0,4.0,86,0.00,,,0.00,weatherlink.com 1.10,2013-02-06 01:45:00,
2013-02-05 18:00:00,53.1,48.4,30.02,West,278,0.0,5.0,84,0.00,,---,0.00,VWS V14.00,2013-02-06 02:00:00,
2013-02-05 18:02:00,53.1,48.7,30.00,SW,220,2.0,4.0,85,0.00,,---,0.00,VWS V14.00,2013-02-06 02:02:00,
2013-02-05 18:20:00,53.2,49.0,30.00,WSW,244,2.0,3.0,85,0.00,,,0.00,weatherlink.com 1.10,2013-02-06 02:20:00,
2013-02-05 18:30:00,53.1,48.4,30.02,SSW,207,1.0,4.0,84,0.00,,---,0.00,VWS V14.00,2013-02-06 02:30:00,
2013-02-05 18:32:00,53.1,48.4,30.01,West,266,3.0,4.0,84,0.00,,---,0.00,VWS V14.00,2013-02-06 02:32:00,
2013-02-05 18:36:00,53.1,49.0,30.01,West,278,0.0,5.0,85,0.00,,,0.00,weatherlink.com 1.10,2013-02-06 02:36:00,
2013-02-05 18:54:00,53.1,48.0,30.02,West,261,3.0,5.0,84,0.00,,,0.00,weatherlink.com 1.10,2013-02-06 02:54:00,
2013-02-05 19:00:00,53.2,48.5,30.02,SSE,163,1.0,4.0,84,0.00,,---,0.00,VWS V14.00,2013-02-06 03:00:00,
2013-02-05 19:02:00,53.1,48.4,30.02,West,278,0.0,5.0,84,0.00,,---,0.00,VWS V14.00,2013-02-06 03:02:00,
2013-02-05 19:11:00,53.1,48.0,30.02,WSW,248,0.0,3.0,84,0.00,,,0.00,weatherlink.com 1.10,2013-02-06 03:11:00,
2013-02-05 19:28:00,53.2,49.0,30.02,SSW,207,0.0,3.0,84,0.00,,,0.00,weatherlink.com 1.10,2013-02-06 03:28:00,
2013-02-05 19:30:00,53.0,48.6,30.03,South,176,0.0,5.0,85,0.00,,---,0.00,VWS V14.00,2013-02-06 03:30:00,
2013-02-05 19:45:00,53.1,48.0,30.02,South,185,0.0,3.0,84,0.00,,,0.00,weatherlink.com 1.10,2013-02-06 03:45:00,
2013-02-05 20:00:00,53.3,48.6,30.03,SSE,158,0.0,5.0,84,0.00,,---,0.00,VWS V14.00,2013-02-06 04:00:00,
2013-02-05 20:02:00,53.2,49.0,30.02,SSE,155,1.0,4.0,84,0.00,,,0.00,weatherlink.com 1.10,2013-02-06 04:02:00,
2013-02-05 20:19:00,52.9,49.0,30.01,SE,127,0.0,5.0,85,0.00,,,0.00,weatherlink.com 1.10,2013-02-06 04:19:00,
2013-02-05 20:30:00,53.1,48.1,30.03,SE,133,0.0,4.0,83,0.00,,---,0.00,VWS V14.00,2013-02-06 04:30:00,
2013-02-05 20:32:00,53.0,48.6,30.03,South,176,0.0,5.0,85,0.00,,---,0.00,VWS V14.00,2013-02-06 04:32:00,
2013-02-05 20:37:00,53.1,48.0,30.03,SSE,159,0.0,2.0,84,0.00,,,0.00,weatherlink.com 1.10,2013-02-06 04:37:00,
2013-02-05 20:54:00,53.2,49.0,30.03,SSE,148,4.0,4.0,84,0.00,,,0.00,weatherlink.com 1.10,2013-02-06 04:54:00,
2013-02-05 21:00:00,53.1,48.1,30.03,SE,142,2.0,6.0,83,0.00,,---,0.00,VWS V14.00,2013-02-06 05:00:00,
2013-02-05 21:02:00,53.3,48.6,30.03,SSE,158,0.0,5.0,84,0.00,,---,0.00,VWS V14.00,2013-02-06 05:02:00,
2013-02-05 21:11:00,53.2,49.0,30.03,SSE,153,1.0,5.0,84,0.00,,,0.00,weatherlink.com 1.10,2013-02-06 05:11:00,
2013-02-05 21:28:00,53.1,48.0,30.03,SSE,148,1.0,2.0,84,0.00,,,0.00,weatherlink.com 1.10,2013-02-06 05:28:00,
2013-02-05 21:30:00,53.0,48.3,30.03,SE,133,0.0,4.0,84,0.00,,---,0.00,VWS V14.00,2013-02-06 05:30:00,
2013-02-05 21:46:00,53.2,49.0,30.03,SE,142,2.0,3.0,84,0.00,,,0.00,weatherlink.com 1.10,2013-02-06 05:46:00,
2013-02-05 22:00:00,53.2,48.5,30.03,WSW,257,0.0,3.0,84,0.00,,---,0.00,VWS V14.00,2013-02-06 06:00:00,
2013-02-05 22:02:00,53.1,48.0,30.03,SE,143,2.0,4.0,83,0.00,,,0.00,weatherlink.com 1.10,2013-02-06 06:02:00,
2013-02-05 22:19:00,53.1,48.0,30.03,SE,140,0.0,4.0,83,0.00,,,0.00,weatherlink.com 1.10,2013-02-06 06:19:00,
2013-02-05 22:30:00,53.1,48.4,30.02,ESE,111,0.0,3.0,84,0.00,,---,0.00,VWS V14.00,2013-02-06 06:30:00,
2013-02-05 22:32:00,53.0,48.3,30.03,SE,133,0.0,4.0,84,0.00,,---,0.00,VWS V14.00,2013-02-06 06:32:00,
2013-02-05 22:37:00,53.0,48.0,30.03,SE,133,0.0,2.0,84,0.00,,,0.00,weatherlink.com 1.10,2013-02-06 06:37:00,
2013-02-05 22:54:00,53.2,48.0,30.03,WSW,258,0.0,3.0,83,0.00,,,0.00,weatherlink.com 1.10,2013-02-06 06:54:00,
2013-02-05 23:00:00,53.1,48.4,30.02,ESE,123,1.0,4.0,84,0.00,,---,0.00,VWS V14.00,2013-02-06 07:00:00,
2013-02-05 23:02:00,53.2,48.5,30.03,WSW,257,0.0,3.0,84,0.00,,---,0.00,VWS V14.00,2013-02-06 07:02:00,
2013-02-05 23:11:00,53.2,49.0,30.03,SSE,148,2.0,3.0,84,0.00,,,0.00,weatherlink.com 1.10,2013-02-06 07:11:00,
2013-02-05 23:28:00,53.1,48.0,30.02,ESE,111,0.0,2.0,84,0.00,,,0.00,weatherlink.com 1.10,2013-02-06 07:28:00,
2013-02-05 23:30:00,52.7,47.7,30.02,SE,136,0.0,5.0,83,0.00,,---,0.00,VWS V14.00,2013-02-06 07:30:00,
2013-02-05 23:45:00,53.1,48.0,30.02,South,186,2.0,4.0,84,0.00,,,0.00,weatherlink.com 1.10,2013-02-06 07:45:00,